Time,TemperatureF,DewpointF,PressureIn,WindDirection,WindDirectionDegrees,WindSpeedMPH,WindSpeedGustMPH,Humidity,HourlyPrecipIn,Conditions,Clouds,dailyrainin,SolarRadiationWatts/m^2,SoftwareType,DateUTC
2013-03-12 00:02:00,63.0,36.0,-100.00,WSW,248,2.0,4.0,37,0.00,,,0.00,1.000000,,2013-03-12 07:02:00,
2013-03-12 00:12:00,63.0,36.0,-100.00,WSW,248,2.0,4.0,37,0.00,,,0.00,1.000000,,2013-03-12 07:12:00,
2013-03-12 00:32:00,62.0,36.0,-100.00,ENE,71,3.0,4.0,38,0.00,,,0.00,1.000000,,2013-03-12 07:32:00,
2013-03-12 00:42:00,62.0,36.0,-100.00,ENE,71,3.0,4.0,38,0.00,,,0.00,1.000000,,2013-03-12 07:42:00,
2013-03-12 00:52:00,62.0,36.0,-100.00,ENE,71,3.0,4.0,38,0.00,,,0.00,1.000000,,2013-03-12 07:52:00,
2013-03-12 01:02:00,62.0,36.0,-100.00,ENE,71,3.0,4.0,38,0.00,,,0.00,1.000000,,2013-03-12 08:02:00,
2013-03-12 01:12:00,62.0,36.0,-100.00,ENE,71,3.0,4.0,38,0.00,,,0.00,1.000000,,2013-03-12 08:12:00,
2013-03-12 01:42:00,59.0,35.0,-100.00,ESE,110,6.0,7.0,41,0.00,,,0.00,1.000000,,2013-03-12 08:42:00,
2013-03-12 01:52:00,59.0,35.0,-100.00,ESE,110,6.0,7.0,41,0.00,,,0.00,1.000000,,2013-03-12 08:52:00,
2013-03-12 02:02:00,59.0,35.0,-100.00,ESE,110,6.0,7.0,41,0.00,,,0.00,1.000000,,2013-03-12 09:02:00,
2013-03-12 02:11:00,59.0,35.0,-100.00,ESE,110,6.0,7.0,41,0.00,,,0.00,1.000000,,2013-03-12 09:11:00,
2013-03-12 02:42:00,60.0,33.0,-100.00,East,90,6.0,8.0,36,0.00,,,0.00,1.000000,,2013-03-12 09:42:00,
2013-03-12 02:52:00,60.0,33.0,-100.00,East,90,6.0,8.0,36,0.00,,,0.00,1.000000,,2013-03-12 09:52:00,
2013-03-12 03:02:00,60.0,33.0,-100.00,East,90,6.0,8.0,36,0.00,,,0.00,1.000000,,2013-03-12 10:02:00,
2013-03-12 03:12:00,60.0,33.0,-100.00,East,90,6.0,8.0,36,0.00,,,0.00,1.000000,,2013-03-12 10:12:00,
2013-03-12 03:33:00,58.0,34.0,-100.00,NE,51,1.0,6.0,40,0.00,,,0.00,1.000000,,2013-03-12 10:33:00,
2013-03-12 03:42:00,58.0,34.0,-100.00,NE,51,1.0,6.0,40,0.00,,,0.00,1.000000,,2013-03-12 10:42:00,
2013-03-12 03:52:00,58.0,34.0,-100.00,NE,51,1.0,6.0,40,0.00,,,0.00,1.000000,,2013-03-12 10:52:00,
2013-03-12 04:02:00,58.0,34.0,-100.00,NE,51,1.0,6.0,40,0.00,,,0.00,1.000000,,2013-03-12 11:02:00,
2013-03-12 04:12:00,58.0,34.0,-100.00,NE,51,1.0,6.0,40,0.00,,,0.00,1.000000,,2013-03-12 11:12:00,
2013-03-12 04:32:00,61.0,32.0,-100.00,NE,55,7.0,8.0,33,0.00,,,0.00,1.000000,,2013-03-12 11:32:00,
2013-03-12 04:42:00,61.0,32.0,-100.00,NE,55,7.0,8.0,33,0.00,,,0.00,1.000000,,2013-03-12 11:42:00,
2013-03-12 04:52:00,61.0,32.0,-100.00,NE,55,7.0,8.0,33,0.00,,,0.00,1.000000,,2013-03-12 11:52:00,
2013-03-12 05:02:00,61.0,32.0,-100.00,NE,55,7.0,8.0,33,0.00,,,0.00,1.000000,,2013-03-12 12:02:00,
2013-03-12 05:12:00,61.0,32.0,-100.00,NE,55,7.0,8.0,33,0.00,,,0.00,1.000000,,2013-03-12 12:12:00,
2013-03-12 05:42:00,58.0,33.0,-100.00,ENE,61,7.0,9.0,38,0.00,,,0.00,1.000000,,2013-03-12 12:42:00,
2013-03-12 05:52:00,58.0,33.0,-100.00,ENE,61,7.0,9.0,38,0.00,,,0.00,1.000000,,2013-03-12 12:52:00,
2013-03-12 06:02:00,58.0,33.0,-100.00,ENE,61,7.0,9.0,38,0.00,,,0.00,1.000000,,2013-03-12 13:02:00,
2013-03-12 06:12:00,58.0,33.0,-100.00,ENE,61,7.0,9.0,38,0.00,,,0.00,1.000000,,2013-03-12 13:12:00,
2013-03-12 06:43:00,57.0,31.0,-100.00,NNE,30,3.0,8.0,37,0.00,,,0.00,1.000000,,2013-03-12 13:43:00,
2013-03-12 06:52:00,57.0,31.0,-100.00,NNE,30,3.0,8.0,37,0.00,,,0.00,1.000000,,2013-03-12 13:52:00,
2013-03-12 07:02:00,57.0,31.0,-100.00,NNE,30,3.0,8.0,37,0.00,,,0.00,1.000000,,2013-03-12 14:02:00,
2013-03-12 07:12:00,57.0,31.0,-100.00,NNE,30,3.0,8.0,37,0.00,,,0.00,1.000000,,2013-03-12 14:12:00,
2013-03-12 07:33:00,50.0,38.0,-100.00,SW,231,1.0,7.0,63,0.00,,,0.00,8.000000,,2013-03-12 14:33:00,
2013-03-12 08:02:00,50.0,38.0,-100.00,SW,231,1.0,7.0,63,0.00,,,0.00,8.000000,,2013-03-12 15:02:00,
2013-03-12 08:42:00,56.0,39.0,-100.00,WNW,295,0.0,3.0,53,0.00,,,0.00,155.000000,,2013-03-12 15:42:00,
2013-03-12 08:53:00,56.0,39.0,-100.00,WNW,295,0.0,3.0,53,0.00,,,0.00,155.000000,,2013-03-12 15:53:00,
2013-03-12 09:43:00,68.0,29.0,-100.00,North,355,6.0,9.0,23,0.00,,,0.00,385.000000,,2013-03-12 16:43:00,
2013-03-12 09:53:00,68.0,29.0,-100.00,North,355,6.0,9.0,23,0.00,,,0.00,385.000000,,2013-03-12 16:53:00,
2013-03-12 10:02:00,68.0,29.0,-100.00,North,355,6.0,9.0,23,0.00,,,0.00,385.000000,,2013-03-12 17:02:00,
2013-03-12 10:12:00,68.0,29.0,-100.00,North,355,6.0,9.0,23,0.00,,,0.00,385.000000,,2013-03-12 17:12:00,
2013-03-12 10:44:00,71.0,30.0,-100.00,NNE,30,6.0,10.0,22,0.00,,,0.00,602.000000,,2013-03-12 17:44:00,
2013-03-12 10:53:00,71.0,30.0,-100.00,NNE,30,6.0,10.0,22,0.00,,,0.00,602.000000,,2013-03-12 17:53:00,
2013-03-12 11:02:00,71.0,30.0,-100.00,NNE,30,6.0,10.0,22,0.00,,,0.00,602.000000,,2013-03-12 18:02:00,
2013-03-12 11:12:00,71.0,30.0,-100.00,NNE,30,6.0,10.0,22,0.00,,,0.00,602.000000,,2013-03-12 18:12:00,
2013-03-12 11:43:00,76.0,29.0,-100.00,NNE,18,5.0,10.0,18,0.00,,,0.00,775.000000,,2013-03-12 18:43:00,
2013-03-12 11:53:00,76.0,29.0,-100.00,NNE,18,5.0,10.0,18,0.00,,,0.00,775.000000,,2013-03-12 18:53:00,
2013-03-12 12:03:00,76.0,29.0,-100.00,NNE,18,5.0,10.0,18,0.00,,,0.00,775.000000,,2013-03-12 19:03:00,
2013-03-12 12:12:00,76.0,29.0,-100.00,NNE,18,5.0,10.0,18,0.00,,,0.00,775.000000,,2013-03-12 19:12:00,
2013-03-12 12:43:00,79.0,27.0,-100.00,NNE,27,7.0,11.0,15,0.00,,,0.00,890.000000,,2013-03-12 19:43:00,
2013-03-12 12:53:00,79.0,27.0,-100.00,NNE,27,7.0,11.0,15,0.00,,,0.00,890.000000,,2013-03-12 19:53:00,
2013-03-12 13:02:00,79.0,27.0,-100.00,NNE,27,7.0,11.0,15,0.00,,,0.00,890.000000,,2013-03-12 20:02:00,
2013-03-12 13:12:00,79.0,27.0,-100.00,NNE,27,7.0,11.0,15,0.00,,,0.00,890.000000,,2013-03-12 20:12:00,
2013-03-12 13:42:00,83.0,27.0,-100.00,ENE,59,4.0,10.0,13,0.00,,,0.00,932.000000,,2013-03-12 20:42:00,
2013-03-12 13:53:00,83.0,27.0,-100.00,ENE,59,4.0,10.0,13,0.00,,,0.00,932.000000,,2013-03-12 20:53:00,
2013-03-12 14:02:00,83.0,27.0,-100.00,ENE,59,4.0,10.0,13,0.00,,,0.00,932.000000,,2013-03-12 21:02:00,
2013-03-12 14:12:00,83.0,27.0,-100.00,ENE,59,4.0,10.0,13,0.00,,,0.00,932.000000,,2013-03-12 21:12:00,
2013-03-12 14:43:00,85.0,25.0,-100.00,NNE,33,4.0,11.0,11,0.00,,,0.00,898.000000,,2013-03-12 21:43:00,
2013-03-12 14:52:00,85.0,25.0,-100.00,NNE,33,4.0,11.0,11,0.00,,,0.00,898.000000,,2013-03-12 21:52:00,
2013-03-12 15:02:00,85.0,25.0,-100.00,NNE,33,4.0,11.0,11,0.00,,,0.00,898.000000,,2013-03-12 22:02:00,
2013-03-12 15:12:00,85.0,25.0,-100.00,NNE,33,4.0,11.0,11,0.00,,,0.00,898.000000,,2013-03-12 22:12:00,
2013-03-12 15:43:00,86.0,25.0,-100.00,NNE,23,5.0,9.0,11,0.00,,,-99.99,792.000000,,2013-03-12 22:43:00,
2013-03-12 15:53:00,86.0,25.0,-100.00,NNE,23,5.0,9.0,11,0.00,,,-99.99,792.000000,,2013-03-12 22:53:00,
2013-03-12 16:02:00,86.0,25.0,-100.00,NNE,23,5.0,9.0,11,0.00,,,-99.99,792.000000,,2013-03-12 23:02:00,
2013-03-12 16:12:00,86.0,25.0,-100.00,NNE,23,5.0,9.0,11,0.00,,,-99.99,792.000000,,2013-03-12 23:12:00,
2013-03-12 16:34:00,88.0,27.0,-100.00,NW,319,3.0,11.0,11,0.00,,,0.00,625.000000,,2013-03-12 23:34:00,
2013-03-12 16:43:00,88.0,27.0,-100.00,NW,319,3.0,11.0,11,0.00,,,0.00,625.000000,,2013-03-12 23:43:00,
2013-03-12 16:52:00,88.0,27.0,-100.00,NW,319,3.0,11.0,11,0.00,,,0.00,625.000000,,2013-03-12 23:52:00,
2013-03-12 17:02:00,88.0,27.0,-100.00,NW,319,3.0,11.0,11,0.00,,,0.00,625.000000,,2013-03-13 00:02:00,
2013-03-12 17:12:00,88.0,27.0,-100.00,NW,319,3.0,11.0,11,0.00,,,0.00,625.000000,,2013-03-13 00:12:00,
2013-03-12 17:42:00,88.0,27.0,-100.00,NW,307,4.0,10.0,11,0.00,,,0.00,416.000000,,2013-03-13 00:42:00,
2013-03-12 17:53:00,88.0,27.0,-100.00,NW,307,4.0,10.0,11,0.00,,,0.00,416.000000,,2013-03-13 00:53:00,
2013-03-12 18:02:00,88.0,27.0,-100.00,NW,307,4.0,10.0,11,0.00,,,0.00,416.000000,,2013-03-13 01:02:00,
2013-03-12 18:12:00,88.0,27.0,-100.00,NW,307,4.0,10.0,11,0.00,,,0.00,416.000000,,2013-03-13 01:12:00,
2013-03-12 18:33:00,85.0,35.0,-100.00,WSW,255,3.0,9.0,17,0.00,,,0.00,190.000000,,2013-03-13 01:33:00,
2013-03-12 19:12:00,85.0,35.0,-100.00,WSW,255,3.0,9.0,17,0.00,,,0.00,190.000000,,2013-03-13 02:12:00,
2013-03-12 19:43:00,78.0,35.0,-100.00,WSW,243,3.0,6.0,21,0.00,,,0.00,17.000000,,2013-03-13 02:43:00,
2013-03-12 19:52:00,78.0,35.0,-100.00,WSW,243,3.0,6.0,21,0.00,,,0.00,17.000000,,2013-03-13 02:52:00,
2013-03-12 20:02:00,78.0,35.0,-100.00,WSW,243,3.0,6.0,21,0.00,,,0.00,17.000000,,2013-03-13 03:02:00,
2013-03-12 20:12:00,78.0,35.0,-100.00,WSW,243,3.0,6.0,21,0.00,,,0.00,17.000000,,2013-03-13 03:12:00,
2013-03-12 20:32:00,74.0,36.0,-100.00,NW,305,3.0,5.0,25,0.00,,,0.00,1.000000,,2013-03-13 03:32:00,
2013-03-12 20:42:00,74.0,36.0,-100.00,NW,305,3.0,5.0,25,0.00,,,0.00,1.000000,,2013-03-13 03:42:00,
2013-03-12 20:52:00,74.0,36.0,-100.00,NW,305,3.0,5.0,25,0.00,,,0.00,1.000000,,2013-03-13 03:52:00,
2013-03-12 21:02:00,74.0,36.0,-100.00,NW,305,3.0,5.0,25,0.00,,,0.00,1.000000,,2013-03-13 04:02:00,
2013-03-12 21:12:00,74.0,36.0,-100.00,NW,305,3.0,5.0,25,0.00,,,0.00,1.000000,,2013-03-13 04:12:00,
2013-03-12 21:32:00,72.0,37.0,-100.00,WSW,253,2.0,5.0,28,0.00,,,0.00,1.000000,,2013-03-13 04:32:00,
2013-03-12 21:43:00,72.0,37.0,-100.00,WSW,253,2.0,5.0,28,0.00,,,0.00,1.000000,,2013-03-13 04:43:00,
2013-03-12 21:53:00,72.0,37.0,-100.00,WSW,253,2.0,5.0,28,0.00,,,0.00,1.000000,,2013-03-13 04:53:00,
2013-03-12 22:02:00,72.0,37.0,-100.00,WSW,253,2.0,5.0,28,0.00,,,0.00,1.000000,,2013-03-13 05:02:00,
2013-03-12 22:12:00,72.0,37.0,-100.00,WSW,253,2.0,5.0,28,0.00,,,0.00,1.000000,,2013-03-13 05:12:00,
2013-03-12 22:32:00,70.0,36.0,-100.00,NW,304,3.0,5.0,29,0.00,,,0.00,1.000000,,2013-03-13 05:32:00,
2013-03-12 22:42:00,70.0,36.0,-100.00,NW,304,3.0,5.0,29,0.00,,,0.00,1.000000,,2013-03-13 05:42:00,
2013-03-12 22:52:00,70.0,36.0,-100.00,NW,304,3.0,5.0,29,0.00,,,0.00,1.000000,,2013-03-13 05:52:00,
2013-03-12 23:02:00,70.0,36.0,-100.00,NW,304,3.0,5.0,29,0.00,,,0.00,1.000000,,2013-03-13 06:02:00,
2013-03-12 23:12:00,70.0,36.0,-100.00,NW,304,3.0,5.0,29,0.00,,,0.00,1.000000,,2013-03-13 06:12:00,
2013-03-12 23:33:00,69.0,35.0,-100.00,NNW,330,3.0,8.0,29,0.00,,,0.00,1.000000,,2013-03-13 06:33:00,
2013-03-12 23:42:00,69.0,35.0,-100.00,NNW,330,3.0,8.0,29,0.00,,,0.00,1.000000,,2013-03-13 06:42:00,
2013-03-12 23:52:00,69.0,35.0,-100.00,NNW,330,3.0,8.0,29,0.00,,,0.00,1.000000,,2013-03-13 06:52:00,